Верейка

Россия / Московская область     55°25′58″N   39°18′06″E
темп.,
°C
ветер,
м/с
пор.,
м/с
влажн.,
%
обл.,
%
осадки,
мм/ч
давл.,
гПа
погр.,
м
25 февраля, чт
чт2500:00−14ю4895100 0.4 1029389
03:00−13ю4995100 1.6 1025357
06:00−11ююз51094100 2.6 1019431
09:00−4юз51194100 4.4 1014526
12:00+2з413100100 0.6 1012542
15:00+3зсз512100100 0.6 1012508
18:00+2зсз41199100 0.0 1013436
21:00+1сз41198100 0.0 1013370
26 февраля, пт
пт2600:00+1з3899100 0.0 1012234
03:00+1з3999100 0.4 1011280
06:00+2з41199100 0.4 1009347
09:00+3зюз51298100 1.1 1007421
12:00+3зюз51399100 0.0 1005462
15:00+3зюз61598100 0.3 1003681
18:00+2з5149482 0.2 1001900
21:00+1з6149191 0.3 10021058
27 февраля, сб
сб2700:00+1з6149195 0.0 10001039
03:00+1з6138897 0.1 1000935
06:00+1з6129398 0.1 999928
09:000сз6129799 0.6 1000790
12:00−6ссз61085100 0.9 1002756
15:00−7ссз51085100 1.0 1005753
18:00−8с5989100 0.1 1008706
21:00−9с4990100 0.1 1011665
28 февраля, вс
вс2800:00−11ссз3993100 0.1 1013507
03:00−12ссз389498 0.1 1015401
06:00−13ссз379580 0.0 1016322
09:00−11ссз379180 0.1 1018400
12:00−8ссз368798 0.0 1018548
15:00−5ссз488699 0.1 1020736
18:00−6ссз2795100 0.1 1021313
21:00−7с2497100 0.3 1023131
1 марта, пн
пн100:00−7ссз1297100 0.2 102476
03:00−7сз2396100 0.2 102595
06:00−8зсз239695 0.0 102552
09:00−6з369491 0.1 1025244
12:00−3зюз479178 0.0 1023396
15:00−1з5109489 0.2 1021702
18:000з51294100 0.1 1018653
21:00+1з51392100 0.1 1016784